Belen, NM

12:47 PM MST on February 06, 2016 (GMT -0700)
Belen

Weather History for KE80 - October, 2013

Change the Weather History Date:

Thursday, October 31, 2013

  Actual Average (KABQ) Record (KABQ)
Temperature  
Mean Temperature 45 °F 52 °F  
Max Temperature 61 °F 63 °F 79 °F (1950)
Min Temperature 29 °F 40 °F 21 °F (1991)
Degree Days  
Heating Degree Days 20 13  
Month to date heating degree days 241  
Since 1 July heating degree days 266  
Cooling Degree Days 0 0  
Month to date cooling degree days 10  
Year to date cooling degree days 1322  
Moisture  
Dew Point 26 °F    
Average Humidity 51    
Maximum Humidity 83    
Minimum Humidity 22    
Precipitation  
Precipitation 0.00 in 0.02 in 0.49 in (1920)
Month to date precipitation 1.02  
Year to date precipitation 8.38  
Snow  
Snow 0.00 in - - ()
Month to date snowfall  
Since 1 July snowfall  
Since 1 September snowfall  
Snow Depth -    
Sea Level Pressure  
Sea Level Pressure 30.08 in    
Wind  
Wind Speed 8 mph (NW)    
Max Wind Speed 18 mph    
Max Gust Speed 24 mph    
Visibility 10 miles    
Events      
T = Trace of Precipitation, MM = Missing Value Source: NWS Daily Summary

Daily Weather History Graph

Daily Weather History Graph

Search for Another Location

Airport or City:

Trip Planner

Search our weather history database for the weather conditions in past years. The results will help you decide how hot, cold, wet, or windy it might be!

Date:

Astronomy

Oct. 31, 2013 Rise Set
Actual Time 7:27 AM MDT 6:14 PM MDT
Civil Twilight 7:01 AM MDT 6:40 PM MDT
Nautical Twilight 6:31 AM MDT 7:09 PM MDT
Astronomical Twilight 6:01 AM MDT 7:39 PM MDT
Moon 4:26 AM MDT (10/31) 4:28 PM MDT (10/31)
Length of Visible Light 11h 39m
Length of Day
10h 47m
Waning Crescent, 9% of the Moon is Illuminated
Oct 31
Waning Crescent
Nov 3
New
Nov 9
First Quarter
Nov 17
Full
Nov 25
Last Quarter

Hourly Weather History & Observations

Time (MDT) Temp. Windchill Dew Point Humidity Pressure Visibility Wind Dir Wind Speed Gust Speed Precip Events Conditions
12:15 AM 34.3 °F 28.4 °F 28.6 °F 79% 30.03 in 10.0 mi NW 6.9 mph - N/A   Clear
12:35 AM 35.2 °F 29.5 °F 29.1 °F 78% 30.05 in 10.0 mi West 6.9 mph - N/A   Clear
12:55 AM 38.1 °F 31.2 °F 29.7 °F 72% 30.06 in 10.0 mi WSW 10.4 mph - N/A   Clear
1:15 AM 38.5 °F 33.4 °F 29.1 °F 69% 30.07 in 10.0 mi West 6.9 mph - N/A   Clear
1:35 AM 41.2 °F 35.0 °F 29.3 °F 63% 30.07 in 10.0 mi West 10.4 mph - N/A   Clear
1:55 AM 39.2 °F 35.0 °F 28.8 °F 66% 30.07 in 10.0 mi WNW 5.8 mph - N/A   Clear
2:15 AM 37.0 °F 33.3 °F 28.4 °F 71% 30.07 in 10.0 mi WNW 4.6 mph - N/A   Clear
2:35 AM 37.6 °F 35.1 °F 28.8 °F 70% 30.07 in 10.0 mi NNW 3.5 mph - N/A   Clear
2:55 AM 36.0 °F 30.3 °F 28.0 °F 73% 30.07 in 10.0 mi West 6.9 mph - N/A   Clear
3:15 AM 37.9 °F 30.9 °F 29.1 °F 71% 30.06 in 10.0 mi West 10.4 mph - N/A   Clear
3:35 AM 42.1 °F 34.5 °F 27.9 °F 57% 30.05 in 10.0 mi West 15.0 mph 21.9 mph N/A   Clear
3:55 AM 40.3 °F 35.5 °F 27.9 °F 61% 30.06 in 10.0 mi West 6.9 mph - N/A   Clear
4:15 AM 35.8 °F 29.4 °F 27.0 °F 70% 30.06 in 10.0 mi WSW 8.1 mph - N/A   Clear
4:35 AM 35.8 °F 28.8 °F 27.7 °F 72% 30.07 in 10.0 mi West 9.2 mph - N/A   Clear
4:55 AM 34.9 °F 27.7 °F 27.3 °F 74% 30.08 in 10.0 mi West 9.2 mph - N/A   Clear
5:15 AM 36.1 °F 28.7 °F 27.3 °F 70% 30.09 in 10.0 mi West 10.4 mph - N/A   Clear
5:35 AM 34.0 °F 28.0 °F 26.6 °F 74% 30.09 in 10.0 mi West 6.9 mph - N/A   Clear
5:55 AM 32.4 °F 25.3 °F 26.2 °F 78% 30.10 in 10.0 mi SW 8.1 mph - N/A   Clear
6:15 AM 31.6 °F 25.1 °F 25.5 °F 78% 30.10 in 10.0 mi West 6.9 mph - N/A   Clear
6:35 AM 29.7 °F 23.7 °F 25.0 °F 83% 30.11 in 10.0 mi West 5.8 mph - N/A   Clear
6:55 AM 32.0 °F 25.6 °F 25.3 °F 76% 30.12 in 10.0 mi West 6.9 mph - N/A   Clear
7:15 AM 32.2 °F 27.7 °F 25.9 °F 78% 30.12 in 10.0 mi WNW 4.6 mph - N/A   Clear
7:35 AM 30.2 °F 26.7 °F 24.3 °F 79% 30.13 in 10.0 mi SE 3.5 mph - N/A   Clear
7:55 AM 34.5 °F 31.6 °F 25.7 °F 70% 30.14 in 10.0 mi West 3.5 mph - N/A   Clear
8:15 AM 34.7 °F 28.8 °F 27.5 °F 75% 30.14 in 10.0 mi WSW 6.9 mph - N/A   Clear
8:35 AM 40.1 °F 34.7 °F 28.0 °F 62% 30.15 in 10.0 mi WSW 8.1 mph - N/A   Clear
8:55 AM 41.9 °F 35.9 °F 27.5 °F 57% 30.15 in 10.0 mi West 10.4 mph - N/A   Clear
9:15 AM 43.9 °F 38.8 °F 27.5 °F 53% 30.15 in 10.0 mi West 9.2 mph - N/A   Clear
9:35 AM 45.9 °F 41.2 °F 27.5 °F 49% 30.15 in 10.0 mi West 9.2 mph - N/A   Clear
9:55 AM 47.3 °F - 27.1 °F 46% 30.16 in 10.0 mi West 9.2 mph - N/A   Clear
10:15 AM 49.1 °F - 27.0 °F 42% 30.16 in 10.0 mi West 6.9 mph - N/A   Clear
10:35 AM 50.2 °F - 26.1 °F 39% 30.15 in 10.0 mi WNW 8.1 mph - N/A   Clear
10:55 AM 50.9 °F - 25.5 °F 37% 30.15 in 10.0 mi NNW 9.2 mph - N/A   Clear
11:15 AM 51.3 °F - 25.3 °F 37% 30.14 in 10.0 mi WNW 10.4 mph - N/A   Clear
11:35 AM 52.3 °F - 24.6 °F 34% 30.14 in 10.0 mi NNW 6.9 mph 20.7 mph N/A   Clear
11:55 AM 53.4 °F - 25.2 °F 33% 30.14 in 10.0 mi NW 10.4 mph - N/A   Clear
12:15 PM 54.3 °F - 25.0 °F 32% 30.12 in 10.0 mi NNW 12.7 mph 17.3 mph N/A   Clear
12:35 PM 55.4 °F - 24.8 °F 31% 30.11 in 10.0 mi NW 13.8 mph - N/A   Clear
12:55 PM 55.4 °F - 25.3 °F 31% 30.10 in 10.0 mi WNW 9.2 mph - N/A   Clear
1:15 PM 56.5 °F - 24.4 °F 29% 30.09 in 10.0 mi WNW 10.4 mph 18.4 mph N/A   Clear
1:35 PM 57.2 °F - 24.4 °F 28% 30.08 in 10.0 mi NW 11.5 mph 17.3 mph N/A   Clear
1:55 PM 57.7 °F - 23.9 °F 27% 30.06 in 10.0 mi NNW 6.9 mph 17.3 mph N/A   Clear
2:15 PM 58.5 °F - 23.0 °F 26% 30.05 in 10.0 mi WNW 5.8 mph - N/A   Clear
2:35 PM 60.4 °F - 23.0 °F 24% 30.04 in 10.0 mi NW 13.8 mph 18.4 mph N/A   Clear
2:55 PM 60.3 °F - 22.6 °F 24% 30.03 in 10.0 mi NW 16.1 mph 24.2 mph N/A   Clear
3:15 PM 61.2 °F - 23.0 °F 23% 30.03 in 10.0 mi NW 17.3 mph 21.9 mph N/A   Clear
3:35 PM 60.8 °F - 23.4 °F 24% 30.03 in 10.0 mi West 12.7 mph 16.1 mph N/A   Clear
3:55 PM 61.3 °F - 21.6 °F 22% 30.03 in 10.0 mi WNW 13.8 mph 20.7 mph N/A   Clear
4:15 PM 61.3 °F - 21.7 °F 22% 30.02 in 10.0 mi WNW 18.4 mph 21.9 mph N/A   Clear
4:35 PM 61.2 °F - 22.5 °F 23% 30.02 in 10.0 mi WNW 10.4 mph - N/A   Clear
4:55 PM 60.8 °F - 23.4 °F 24% 30.02 in 10.0 mi WNW 12.7 mph 19.6 mph N/A   Clear
5:15 PM 59.9 °F - 23.4 °F 25% 30.02 in 10.0 mi WNW 11.5 mph 23.0 mph N/A   Clear
5:35 PM 59.0 °F - 23.9 °F 26% 30.02 in 10.0 mi NW 13.8 mph - N/A   Clear
5:55 PM 57.6 °F - 24.1 °F 28% 30.02 in 10.0 mi NW 10.4 mph - N/A   Clear
6:15 PM 55.4 °F - 24.4 °F 30% 30.03 in 10.0 mi NW 9.2 mph - N/A   Clear
6:35 PM 52.3 °F - 24.8 °F 34% 30.04 in 10.0 mi North 8.1 mph - N/A   Clear
6:55 PM 51.1 °F - 24.8 °F 36% 30.05 in 10.0 mi North 9.2 mph - N/A   Clear
7:15 PM 48.9 °F - 24.8 °F 39% 30.05 in 10.0 mi North 8.1 mph - N/A   Clear
7:35 PM 47.5 °F - 25.2 °F 42% 30.05 in 10.0 mi North 8.1 mph - N/A   Clear
7:55 PM 45.0 °F 40.1 °F 25.5 °F 47% 30.06 in 10.0 mi North 9.2 mph - N/A   Clear
8:15 PM 44.2 °F 39.7 °F 25.2 °F 47% 30.07 in 10.0 mi North 8.1 mph - N/A   Clear
8:35 PM 42.4 °F 37.5 °F 25.0 °F 50% 30.07 in 10.0 mi NNE 8.1 mph - N/A   Clear
8:55 PM 44.1 °F 39.0 °F 25.3 °F 48% 30.07 in 10.0 mi NNE 9.2 mph - N/A   Clear
9:15 PM 43.9 °F 40.5 °F 25.3 °F 48% 30.07 in 10.0 mi North 5.8 mph - N/A   Clear
9:35 PM 42.4 °F 40.7 °F 25.7 °F 52% 30.08 in 10.0 mi North 3.5 mph - N/A   Clear
9:55 PM 41.4 °F - 26.2 °F 55% 30.09 in 10.0 mi Calm Calm - N/A   Clear
10:15 PM 43.9 °F 38.8 °F 26.6 °F 51% 30.10 in 10.0 mi NNE 9.2 mph - N/A   Clear
10:35 PM 41.4 °F 35.7 °F 27.0 °F 57% 30.10 in 10.0 mi North 9.2 mph - N/A   Clear
10:55 PM 41.4 °F 36.8 °F 28.2 °F 60% 30.11 in 10.0 mi NNE 6.9 mph - N/A   Clear
11:15 PM 41.0 °F 38.0 °F 28.2 °F 60% 30.11 in 10.0 mi NE 4.6 mph - N/A   Clear
11:35 PM 41.0 °F 39.0 °F 27.7 °F 59% 30.11 in 10.0 mi ENE 3.5 mph - N/A   Clear
11:55 PM 38.7 °F 32.9 °F 27.5 °F 64% 30.11 in 10.0 mi NE 8.1 mph - N/A   Clear